Location: Indian Hills
(32.9760°N, 85.9450°W)
Time: 00:50:04
(UTC+00:00)

Cosmos 1461 - Pass Details

Date: 09 December 2019
Orbit: 518 x 649 km, 65.0° (Epoch: 26 January)

Event Time Altitude Azimuth Distance (km) Brightness Sun altitude
Exits shadow 11:29:46 14° 329° (NNW) 1,687 4.8 -13.4°
Maximum altitude 11:33:30 78° 243° (WSW) 618 2.9 -12.7°
Drops below altitude 10° 11:37:58 10° 158° (SSE) 1,975 6.3 -11.8°
Sets 11:40:16 0° 156° (SSE) 2,896 7.2 -11.3°
